Location: Newark
(31.5350°N, 35.0986°E)
Time: 23:49:12
(UTC+00:00)

A-11 Canister half - Pass Details

Date: 27 October 2019
Orbit: 1514 x 1686 km, 47.2° (Epoch: 15 November)

Event Time Altitude Azimuth Distance (km) Brightness Sun altitude
Exits shadow 03:22:07 - 309° (NW) 4,597 10.9 -6.9°
Reaches altitude 10° 03:24:38 10° 312° (NW) 3,818 10.6 -6.4°
Maximum altitude 03:34:09 59° 31° (NNE) 1,764 9.5 -4.4°
Drops below altitude 10° 03:43:19 10° 110° (ESE) 3,691 13.1 -2.5°
Sets 03:46:24 0° 114° (ESE) 4,660 13.9 -1.8°
